EW2261 Weather Reports


Display with metric or nautical units.
time (UTC)temp
F
wind
direction
speed
MPH
gust
MPH
rain 1hr
in
rain 24hr
in
rain mn
in
humidity
%
barometer
mb
20191014153529 75 355 0.0 3.0 0.00 0.02 0.02 90 1017.9
20191014153030 75 355 0.0 4.0 0.00 0.02 0.02 90 1017.8
20191014152528 74 355 1.0 5.0 0.00 0.02 0.02 91 1017.9
20191014152028 74 355 1.0 5.0 0.00 0.02 0.02 93 1018.0
20191014151529 73 346 0.0 2.0 0.00 0.02 0.02 96 1018.0
20191014151030 72 346 0.0 2.0 0.00 0.02 0.02 97 1018.0
20191014150529 71 346 0.0 2.0 0.00 0.02 0.02 96 1017.9
20191014150029 71 342 0.0 1.0 0.00 0.02 0.02 97 1017.9
20191014145529 71 342 0.0 1.0 0.00 0.02 0.02 98 1018.0
20191014145027 70 342 0.0 1.0 0.00 0.02 0.02 98 1018.0
20191014144526 70 342 0.0 0.0 0.00 0.02 0.02 98 1018.0
20191014144027 70 348 0.0 2.0 0.00 0.02 0.02 98 1018.0
20191014143525 70 348 0.0 3.0 0.00 0.02 0.02 98 1018.0
20191014143025 70 346 0.0 3.0 0.00 0.02 0.02 99 1017.8
20191014142524 70 347 0.0 2.0 0.00 0.02 0.02 100 1017.8
20191014142025 69 347 0.0 2.0 0.01 0.02 0.02 100 1017.8
20191014141525 68 331 0.0 2.0 0.01 0.02 0.02 100 1017.8
20191014141025 68 351 0.0 0.0 0.01 0.02 0.02 100 1017.9
20191014140525 67 351 0.0 0.0 0.01 0.02 0.02 100 1018.0
20191014140024 67 351 0.0 0.0 0.02 0.02 0.02 99 1017.9
20191014135523 67 351 0.0 0.0 0.02 0.02 0.02 99 1017.9
20191014135023 67 351 0.0 0.0 0.02 0.02 0.02 100 1018.1
20191014134522 67 351 0.0 0.0 0.02 0.02 0.02 100 1018.2
20191014134022 67 351 0.0 0.0 0.02 0.02 0.02 100 1018.1
20191014133523 67 351 0.0 0.0 0.02 0.02 0.02 99 1018.2
20191014133023 67 351 0.0 0.0 0.02 0.02 0.02 99 1018.0
20191014132520 67 351 0.0 0.0 0.02 0.02 0.02 99 1017.9
20191014132023 67 351 0.0 2.0 0.01 0.01 0.01 99 1017.7
20191014131520 67 351 0.0 2.0 0.01 0.01 0.01 100 1017.4
20191014131021 67 245 0.0 0.0 0.01 0.01 0.01 99 1017.4
20191014130521 67 245 0.0 0.0 0.01 0.01 0.01 99 1017.5
20191014130021 67 245 0.0 0.0 0.00 0.00 0.00 99 1017.6
20191014125520 67 245 0.0 0.0 0.00 0.00 0.00 98 1017.7
20191014125020 67 245 0.0 0.0 0.00 0.00 0.00 98 1017.6
20191014124520 67 245 0.0 0.0 0.00 0.00 0.00 98 1017.7
20191014124020 67 245 0.0 0.0 0.00 0.00 0.00 97 1017.5
20191014123520 66 245 0.0 0.0 0.00 0.00 0.00 97 1017.3
20191014123021 66 245 0.0 0.0 0.00 0.00 0.00 97 1017.2
20191014122520 66 245 0.0 0.0 0.00 0.00 0.00 98 1017.1
20191014122025 66 245 0.0 0.0 0.00 0.00 0.00 98 1017.1
20191014121521 66 245 0.0 0.0 0.00 0.00 0.00 98 1017.0
20191014121021 66 245 0.0 0.0 0.00 0.00 0.00 98 1017.0
20191014120520 66 245 0.0 0.0 0.00 0.00 0.00 98 1016.9
20191014120020 66 245 0.0 0.0 0.00 0.00 0.00 98 1016.9
20191014115520 66 245 0.0 0.0 0.00 0.00 0.00 97 1016.9
20191014115020 65 245 0.0 0.0 0.00 0.00 0.00 97 1016.8
20191014114520 65 14 0.0 0.0 0.00 0.00 0.00 97 1016.9
20191014114021 65 14 0.0 0.0 0.00 0.00 0.00 97 1017.0
20191014113520 65 14 0.0 0.0 0.00 0.00 0.00 97 1017.1
20191014113019 65 14 0.0 0.0 0.00 0.00 0.00 97 1017.1
20191014112519 65 14 0.0 0.0 0.00 0.00 0.00 97 1017.0
20191014112018 65 14 0.0 0.0 0.00 0.00 0.00 96 1016.9
20191014111517 65 14 0.0 0.0 0.00 0.00 0.00 96 1016.9
20191014111017 66 14 0.0 0.0 0.00 0.00 0.00 96 1017.0
20191014110516 66 14 0.0 0.0 0.00 0.00 0.00 96 1017.0
20191014110015 66 14 0.0 0.0 0.00 0.00 0.00 96 1017.0
20191014105516 66 14 0.0 0.0 0.00 0.00 0.00 96 1016.9
20191014105016 66 14 0.0 0.0 0.00 0.00 0.00 96 1016.7
20191014104516 66 14 0.0 0.0 0.00 0.00 0.00 96 1016.7
20191014104016 66 14 0.0 0.0 0.00 0.00 0.00 95 1016.6
20191014103517 66 14 0.0 0.0 0.00 0.00 0.00 95 1016.6
20191014103016 66 14 0.0 0.0 0.00 0.00 0.00 95 1016.5
20191014102516 66 14 0.0 0.0 0.00 0.00 0.00 95 1016.5
20191014102017 66 14 0.0 0.0 0.00 0.00 0.00 95 1016.5
20191014101516 66 14 0.0 0.0 0.00 0.00 0.00 95 1016.4
20191014101014 66 14 0.0 0.0 0.00 0.00 0.00 94 1016.4
20191014100517 66 14 0.0 0.0 0.00 0.00 0.00 94 1016.3
20191014100014 67 14 0.0 0.0 0.00 0.00 0.00 94 1016.3
20191014095516 67 14 0.0 0.0 0.00 0.00 0.00 94 1016.2
20191014095014 67 14 0.0 0.0 0.00 0.00 0.00 94 1016.1
20191014094514 67 14 0.0 0.0 0.00 0.00 0.00 94 1016.1
20191014094014 67 14 0.0 0.0 0.00 0.00 0.00 94 1016.1
20191014093514 67 14 0.0 0.0 0.00 0.00 0.00 94 1016.0
20191014093014 67 14 0.0 0.0 0.00 0.00 0.00 94 1015.9
20191014092513 67 14 0.0 0.0 0.00 0.00 0.00 94 1016.1
20191014092012 67 14 0.0 0.0 0.00 0.00 0.00 94 1016.1
20191014091513 67 14 0.0 0.0 0.00 0.00 0.00 95 1016.1
20191014091012 67 14 0.0 0.0 0.00 0.00 0.00 95 1016.2
20191014090512 67 14 0.0 0.0 0.00 0.00 0.00 95 1016.2
20191014090012 67 14 0.0 0.0 0.00 0.00 0.00 95 1016.3
20191014085512 67 14 0.0 0.0 0.00 0.00 0.00 95 1016.4
20191014085012 67 14 0.0 0.0 0.00 0.00 0.00 95 1016.4
20191014084512 67 14 0.0 0.0 0.00 0.00 0.00 96 1016.4
20191014084012 67 14 0.0 0.0 0.00 0.00 0.00 96 1016.3
20191014083513 67 14 0.0 0.0 0.00 0.00 0.00 96 1016.3
20191014083010 66 14 0.0 0.0 0.00 0.00 0.00 95 1016.3
20191014082510 66 14 0.0 0.0 0.00 0.00 0.00 95 1016.4
20191014082011 67 14 0.0 0.0 0.00 0.00 0.00 95 1016.3
20191014081510 66 14 0.0 0.0 0.00 0.00 0.00 95 1016.3
20191014081010 67 14 0.0 0.0 0.00 0.00 0.00 95 1016.4
20191014080510 67 14 0.0 0.0 0.00 0.00 0.00 94 1016.5
20191014080010 67 14 0.0 0.0 0.00 0.00 0.00 94 1016.5
20191014075510 67 14 0.0 0.0 0.00 0.00 0.00 94 1016.7
20191014075010 67 14 0.0 0.0 0.00 0.00 0.00 94 1016.7
20191014074510 67 14 0.0 0.0 0.00 0.00 0.00 94 1016.8
20191014074008 67 14 0.0 0.0 0.00 0.00 0.00 94 1016.8
20191014073508 67 14 0.0 0.0 0.00 0.00 0.00 93 1016.8
20191014073008 67 14 0.0 0.0 0.00 0.00 0.00 93 1016.7
20191014072509 67 14 0.0 0.0 0.00 0.00 0.00 93 1016.6
20191014072007 67 14 0.0 0.0 0.00 0.00 0.00 93 1016.7
20191014071507 68 14 0.0 0.0 0.00 0.00 0.00 93 1016.7
20191014071007 68 14 0.0 0.0 0.00 0.00 0.00 93 1016.6
20191014070509 68 14 0.0 0.0 0.00 0.00 0.00 93 1016.7
20191014070008 68 14 0.0 0.0 0.00 0.00 0.00 93 1016.7
20191014065507 68 14 0.0 0.0 0.00 0.00 0.00 93 1016.8
20191014065006 68 14 0.0 0.0 0.00 0.00 0.00 93 1016.8
20191014064506 68 14 0.0 0.0 0.00 0.00 0.00 93 1016.8
20191014064004 68 13 0.0 0.0 0.00 0.00 0.00 93 1016.9
20191014063504 68 13 0.0 0.0 0.00 0.00 0.00 93 1016.9
20191014063004 68 13 0.0 0.0 0.00 0.00 0.00 93 1017.0
20191014062504 68 13 0.0 0.0 0.00 0.00 0.00 93 1017.0
20191014062004 68 13 0.0 0.0 0.00 0.00 0.00 93 1016.9
20191014061502 68 13 0.0 0.0 0.00 0.00 0.00 93 1017.0
20191014061002 68 13 0.0 0.0 0.00 0.00 0.00 93 1017.1
20191014060501 68 13 0.0 0.0 0.00 0.00 0.00 93 1017.0
20191014055959 68 13 0.0 0.0 0.00 0.00 0.00 93 1017.0
20191014055501 68 13 0.0 0.0 0.00 0.00 0.00 93 1017.0
20191014055000 68 13 0.0 0.0 0.00 0.00 0.00 93 1017.0
20191014054500 68 13 0.0 0.0 0.00 0.00 0.00 93 1017.0
20191014054000 68 13 0.0 0.0 0.00 0.00 0.00 93 1017.1
20191014053500 68 13 0.0 0.0 0.00 0.00 0.00 93 1017.0
20191014053000 68 13 0.0 0.0 0.00 0.00 0.00 94 1017.0
20191014052500 68 13 0.0 0.0 0.00 0.00 0.00 94 1017.1
20191014052000 68 13 0.0 0.0 0.00 0.00 0.00 94 1017.1
20191014051500 68 13 0.0 0.0 0.00 0.00 0.00 95 1017.1
20191014051000 68 13 0.0 0.0 0.00 0.00 0.00 95 1017.1
20191014050500 68 13 0.0 0.0 0.00 0.00 0.00 95 1017.2
20191014045959 68 13 0.0 0.0 0.00 0.00 0.00 95 1017.2
20191014045458 68 13 0.0 0.0 0.00 0.00 0.00 95 1017.1
20191014044957 68 13 0.0 0.0 0.00 0.00 0.00 95 1017.2
20191014044457 68 13 0.0 0.0 0.00 0.00 0.00 94 1017.2
20191014043957 68 13 0.0 0.0 0.00 0.00 0.00 94 1017.2
20191014043457 68 13 0.0 0.0 0.00 0.00 0.00 94 1017.1
20191014042957 68 13 0.0 0.0 0.00 0.00 0.00 94 1017.1
20191014042457 68 13 0.0 0.0 0.00 0.00 0.00 94 1017.1
20191014041957 68 13 0.0 0.0 0.00 0.00 0.00 94 1017.0
20191014041457 68 13 0.0 0.0 0.00 0.00 0.00 93 1017.1
20191014040955 69 13 0.0 0.0 0.00 0.00 0.00 93 1017.0
20191014040453 69 13 0.0 0.0 0.00 0.00 0.00 93 1017.1
20191014035952 69 13 0.0 0.0 0.00 0.00 0.00 93 1017.2
20191014035453 69 13 0.0 0.0 0.00 0.00 0.00 93 1017.2
20191014034950 69 13 0.0 0.0 0.00 0.00 0.00 92 1017.2
20191014034451 69 13 0.0 0.0 0.00 0.00 0.00 92 1017.2
20191014033951 69 13 0.0 0.0 0.00 0.00 0.00 92 1017.2
20191014033450 69 13 0.0 0.0 0.00 0.00 0.00 92 1017.2
20191014032951 69 13 0.0 0.0 0.00 0.00 0.00 91 1017.3
20191014032451 70 13 0.0 0.0 0.00 0.00 0.00 91 1017.3
20191014031951 70 13 0.0 0.0 0.00 0.00 0.00 91 1017.4
20191014031451 70 13 0.0 3.0 0.00 0.00 0.00 91 1017.4
20191014030951 70 13 0.0 3.0 0.00 0.00 0.00 91 1017.3
20191014030450 70 355 0.0 0.0 0.00 0.00 0.00 91 1017.3
20191014025951 70 355 0.0 0.0 0.00 0.00 0.00 90 1017.3
20191014025450 70 355 0.0 1.0 0.00 0.00 0.00 90 1017.2
20191014024950 70 355 0.0 1.0 0.00 0.00 0.00 90 1017.1
20191014024450 70 355 0.0 0.0 0.00 0.00 0.00 90 1017.1
20191014023950 70 355 0.0 0.0 0.00 0.00 0.00 90 1017.1
20191014023451 70 355 0.0 0.0 0.00 0.00 0.00 90 1017.1
20191014022952 70 355 0.0 0.0 0.00 0.00 0.00 90 1017.0
20191014022450 70 355 0.0 0.0 0.00 0.00 0.00 90 1017.0
20191014021951 70 355 0.0 0.0 0.00 0.00 0.00 90 1017.0
20191014021451 71 355 0.0 0.0 0.00 0.00 0.00 90 1017.0
20191014020951 71 355 0.0 0.0 0.00 0.00 0.00 90 1017.0
20191014020450 71 355 0.0 0.0 0.00 0.00 0.00 90 1017.0
20191014015950 71 355 0.0 3.0 0.00 0.00 0.00 90 1016.9
20191014015451 71 355 0.0 3.0 0.00 0.00 0.00 89 1016.8
20191014014952 71 10 0.0 3.0 0.00 0.00 0.00 89 1016.8
20191014014448 71 30 0.0 0.0 0.00 0.00 0.00 89 1016.8
20191014013949 71 30 0.0 0.0 0.00 0.00 0.00 89 1016.7
20191014013448 71 30 0.0 0.0 0.00 0.00 0.00 89 1016.9
20191014012949 71 30 0.0 2.0 0.00 0.00 0.00 89 1016.9
20191014012448 72 30 0.0 2.0 0.00 0.00 0.00 89 1016.9
20191014011949 72 5 0.0 1.0 0.00 0.00 0.00 89 1016.9
20191014011448 72 5 0.0 0.0 0.00 0.00 0.00 89 1016.9
20191014010948 72 5 0.0 2.0 0.00 0.00 0.00 89 1016.9
20191014010448 72 5 0.0 2.0 0.00 0.00 0.00 89 1016.8
20191014005947 72 5 0.0 0.0 0.00 0.00 0.00 89 1016.7
20191014005447 72 5 0.0 0.0 0.00 0.00 0.00 88 1016.6
20191014004947 72 5 0.0 0.0 0.00 0.00 0.00 88 1016.5
20191014004446 73 5 0.0 0.0 0.00 0.00 0.00 88 1016.4
20191014003946 73 5 0.0 0.0 0.00 0.00 0.00 87 1016.4
20191014003446 73 5 0.0 0.0 0.00 0.00 0.00 87 1016.3
20191014002946 73 5 0.0 0.0 0.00 0.00 0.00 87 1016.3
20191014002447 73 5 0.0 0.0 0.00 0.00 0.00 87 1016.2
20191014001946 73 5 0.0 0.0 0.00 0.00 0.00 86 1016.2
20191014001447 73 5 0.0 0.0 0.00 0.00 0.00 86 1016.1
20191014000946 74 5 0.0 0.0 0.00 0.00 0.00 85 1016.2
20191014000444 74 5 0.0 0.0 0.00 0.00 0.00 85 1016.1
20191013235944 74 5 0.0 0.0 0.00 0.00 0.00 85 1016.2
20191013235444 74 5 0.0 0.0 0.00 0.00 0.00 84 1016.0
20191013234944 74 5 0.0 0.0 0.00 0.00 0.00 84 1015.9
20191013234444 75 5 0.0 0.0 0.00 0.00 0.00 83 1015.9
20191013233944 75 10 0.0 0.0 0.00 0.00 0.00 83 1015.8
20191013233444 75 10 0.0 0.0 0.00 0.00 0.00 82 1015.8
20191013232945 76 10 0.0 0.0 0.00 0.00 0.00 82 1015.8
20191013232442 76 11 0.0 0.0 0.00 0.00 0.00 81 1015.7
20191013231942 76 338 0.0 0.0 0.00 0.00 0.00 81 1015.6
20191013231442 77 338 0.0 0.0 0.00 0.00 0.00 81 1015.6
20191013230942 77 338 0.0 0.0 0.00 0.00 0.00 80 1015.7
20191013230442 77 338 0.0 0.0 0.00 0.00 0.00 80 1015.6
20191013225942 77 338 0.0 0.0 0.00 0.00 0.00 79 1015.6
20191013225442 78 338 0.0 0.0 0.00 0.00 0.00 79 1015.6
20191013224942 78 338 0.0 0.0 0.00 0.00 0.00 78 1015.5
20191013224442 78 338 0.0 0.0 0.00 0.00 0.00 78 1015.4
20191013223942 78 338 0.0 0.0 0.00 0.00 0.00 78 1015.4
20191013223440 79 338 0.0 0.0 0.00 0.00 0.00 77 1015.4
20191013222941 79 342 0.0 0.0 0.00 0.00 0.00 76 1015.4
20191013222441 79 342 0.0 0.0 0.00 0.00 0.00 76 1015.4
20191013221940 80 342 0.0 0.0 0.00 0.00 0.00 75 1015.3
20191013221439 80 342 0.0 0.0 0.00 0.00 0.00 75 1015.4
20191013220939 80 342 0.0 0.0 0.00 0.00 0.00 75 1015.5
20191013220440 80 342 0.0 0.0 0.00 0.00 0.00 75 1015.5
20191013215940 80 342 0.0 0.0 0.00 0.00 0.00 75 1015.5
20191013215438 80 342 0.0 0.0 0.00 0.00 0.00 74 1015.4
20191013214939 80 342 0.0 0.0 0.00 0.00 0.00 74 1015.4
20191013214435 80 342 0.0 4.0 0.00 0.00 0.00 74 1015.3
20191013213935 80 342 0.0 4.0 0.00 0.00 0.00 74 1015.3
20191013213435 81 317 0.0 4.0 0.00 0.00 0.00 74 1015.2
20191013212935 81 317 1.0 5.0 0.00 0.00 0.00 73 1015.1
20191013212435 81 319 1.0 5.0 0.00 0.00 0.00 73 1015.1
20191013211936 81 55 0.0 1.0 0.00 0.00 0.00 75 1015.1
20191013211437 80 56 0.0 0.0 0.00 0.00 0.00 75 1015.0
20191013210936 80 61 1.0 6.0 0.00 0.00 0.00 74 1015.1
20191013210436 81 308 1.0 6.0 0.00 0.00 0.00 73 1015.0
20191013205936 81 329 0.0 5.0 0.00 0.00 0.00 75 1015.0
20191013205435 81 330 0.0 4.0 0.00 0.00 0.00 74 1015.1
20191013204936 81 333 0.0 4.0 0.00 0.00 0.00 75 1015.0
20191013204435 81 334 0.0 2.0 0.00 0.00 0.00 73 1015.0
20191013203935 80 334 1.0 5.0 0.00 0.00 0.00 75 1015.1
20191013203434 80 330 1.0 7.0 0.00 0.00 0.00 75 1015.2
20191013202934 81 325 1.0 7.0 0.00 0.00 0.00 73 1015.2
20191013202434 81 335 1.0 4.0 0.00 0.00 0.00 74 1015.2
20191013201934 82 338 1.0 4.0 0.00 0.00 0.00 74 1015.2
20191013201434 81 327 1.0 4.0 0.00 0.00 0.00 75 1015.3
20191013200934 81 327 2.0 8.0 0.00 0.00 0.00 75 1015.4
20191013200432 80 311 2.0 8.0 0.00 0.00 0.00 74 1015.4
20191013195933 80 321 2.0 7.0 0.00 0.00 0.00 75 1015.4
20191013195431 80 304 2.0 8.0 0.00 0.00 0.00 74 1015.4
20191013194931 80 319 1.0 8.0 0.00 0.00 0.00 77 1015.5
20191013194431 80 328 1.0 8.0 0.00 0.00 0.00 75 1015.6
20191013193931 80 310 1.0 8.0 0.00 0.00 0.00 75 1015.6
20191013193432 80 11 1.0 7.0 0.00 0.00 0.00 76 1015.5
20191013192931 80 341 1.0 4.0 0.00 0.00 0.00 76 1015.6
20191013192431 80 325 0.0 3.0 0.00 0.00 0.00 78 1015.5
20191013191931 80 325 0.0 3.0 0.00 0.00 0.00 78 1015.5
20191013191431 79 325 0.0 5.0 0.00 0.00 0.00 79 1015.6
20191013190931 79 326 0.0 5.0 0.00 0.00 0.00 79 1015.6
20191013190432 79 336 0.0 3.0 0.00 0.00 0.00 78 1015.6
20191013185932 79 340 0.0 3.0 0.00 0.00 0.00 77 1015.6
20191013185429 80 343 0.0 3.0 0.00 0.00 0.00 77 1015.7
20191013184929 80 343 0.0 3.0 0.00 0.00 0.00 76 1015.7
20191013184429 80 348 0.0 3.0 0.00 0.00 0.00 76 1015.7
20191013183927 80 348 0.0 4.0 0.00 0.00 0.00 75 1015.7
20191013183427 80 355 0.0 4.0 0.00 0.00 0.00 75 1015.7
20191013182927 80 355 0.0 1.0 0.00 0.00 0.00 76 1015.7
20191013182427 80 355 0.0 2.0 0.00 0.00 0.00 78 1015.8
20191013181927 80 355 1.0 6.0 0.00 0.00 0.00 75 1015.8
20191013181427 80 0 1.0 8.0 0.00 0.00 0.00 75 1015.9
20191013180925 81 338 1.0 8.0 0.00 0.00 0.00 74 1015.9
20191013180426 81 311 1.0 8.0 0.00 0.00 0.00 74 1015.9
20191013175925 80 318 1.0 6.0 0.00 0.00 0.00 76 1016.0
20191013175425 80 327 2.0 7.0 0.00 0.00 0.00 76 1016.0
20191013174925 80 307 1.0 7.0 0.00 0.00 0.00 76 1016.1
20191013174425 80 346 1.0 6.0 0.00 0.00 0.00 78 1016.2
20191013173926 80 322 1.0 8.0 0.00 0.00 0.00 75 1016.4
20191013173425 81 306 1.0 8.0 0.00 0.00 0.00 76 1016.4
20191013172926 81 321 1.0 6.0 0.00 0.00 0.00 73 1016.5
20191013172426 81 323 1.0 4.0 0.00 0.00 0.00 75 1016.5
20191013171923 80 320 0.0 5.0 0.00 0.00 0.00 78 1016.5
20191013171423 80 311 1.0 7.0 0.00 0.00 0.00 76 1016.6
20191013170923 80 311 1.0 9.0 0.00 0.00 0.00 75 1016.6
20191013170420 80 301 0.0 9.0 0.00 0.00 0.00 75 1016.7
20191013165922 80 317 0.0 4.0 0.00 0.00 0.00 76 1016.7
20191013165421 80 322 1.0 4.0 0.00 0.00 0.00 75 1016.9
20191013164921 80 309 1.0 5.0 0.00 0.00 0.00 75 1016.9
20191013164421 79 321 1.0 6.0 0.00 0.01 0.00 76 1016.9
20191013163921 79 304 1.0 6.0 0.00 0.01 0.00 77 1017.0
20191013163422 78 316 1.0 6.0 0.00 0.01 0.00 76 1017.1
20191013162921 79 310 1.0 6.0 0.00 0.01 0.00 77 1017.0
20191013162421 78 333 1.0 8.0 0.00 0.01 0.00 78 1017.1
20191013161921 78 319 1.0 8.0 0.00 0.01 0.00 79 1017.2
20191013161420 77 332 0.0 5.0 0.00 0.01 0.00 77 1017.1
20191013160920 77 323 0.0 4.0 0.00 0.01 0.00 78 1017.2
20191013160419 76 322 0.0 4.0 0.00 0.01 0.00 80 1017.2
20191013155919 76 350 0.0 3.0 0.00 0.01 0.00 79 1017.1
20191013155419 75 319 0.0 5.0 0.00 0.01 0.00 79 1017.2
20191013154919 75 325 0.0 5.0 0.00 0.01 0.00 80 1017.3
20191013154420 74 320 0.0 5.0 0.00 0.01 0.00 80 1017.3
20191013153919 74 335 0.0 4.0 0.00 0.01 0.00 82 1017.3